sat.trackr.live / text

‹ back to catalog

UNKNOWN

NORAD 89005

UNKNOWN UNKNOWN UNKNOWN

§ Identity

Operator
Country
Launch date
Launch site
Launch vehicle
Mass (kg)
RCS (m²)

External: N2YO · Heavens-Above

§ Orbital elements

Epoch: 2026-05-23T05:34:38.657568Z

Period
99.54 min
Inclination
97.8440°
Eccentricity
0.0187689
Mean motion
14.46585775 rev/d
Perigee alt
603.3 km
Apogee alt
870.4 km
Semi-major
7,115.0 km
B*
3.5734e-4
RAAN
325.4336°
Arg perigee
253.9180°
Mean anomaly
104.1277°
Rev number
55,743

§ Raw data

UNKNOWN1 89005U          26143.23239187  .00001555  00000+0  35734-3 0  99932 89005  97.8440 325.4336 0187689 253.9180 104.1277 14.46585775557437

JSON: /api/v1/satellites/89005 · /tle

For live sub-satellite position, see the globe view (requires WebGL).

§ Visibility from observer

Set your observer location to see the next 7 days of passes ≥ 10°. The values pass through the URL so the page stays shareable.

No JS? Fill the form by hand. The geolocation button needs JavaScript.